Ukiah, CA

2:20 AM PDT on April 23, 2017 (GMT -0700)
Ukiah Municipal

Weather History for KUKI - October, 2014

Change the Weather History Date:

Saturday, October 11, 2014

  Actual Average Record
Temperature  
Mean Temperature 69 °F 62 °F  
Max Temperature 88 °F 80 °F 98 °F (1917)
Min Temperature 49 °F 44 °F 32 °F (1930)
Degree Days  
Heating Degree Days 0 4  
Month to date heating degree days 34  
Since 1 July heating degree days 67  
Cooling Degree Days 4 1  
Month to date cooling degree days 16  
Year to date cooling degree days 829  
Growing Degree Days 18 (Base 50)    
Moisture  
Dew Point 47 °F    
Average Humidity 51    
Maximum Humidity 80    
Minimum Humidity 21    
Precipitation  
Precipitation 0.00 in 0.05 in 2.95 in (1962)
Month to date precipitation 0.00 0.20  
Year to date precipitation 17.32 24.17  
Since 1 July precipitation 0.69  
Snow  
Snow 0.00 in - - ()
Month to date snowfall 0.0  
Since 1 July snowfall 0.0  
Since 1 September snowfall 0.0  
Snow Depth 0.00 in    
Sea Level Pressure  
Sea Level Pressure 30.01 in    
Wind  
Wind Speed 3 mph (NW)    
Max Wind Speed 16 mph    
Max Gust Speed 22 mph    
Visibility 10 miles    
Events      
T = Trace of Precipitation, MM = Missing Value Source: NWS Daily Summary

Daily Weather History Graph

Daily Weather History Graph

Search for Another Location

Airport or City:

Trip Planner

Search our weather history database for the weather conditions in past years. The results will help you decide how hot, cold, wet, or windy it might be!

Date:

Astronomy

Oct. 11, 2014 Rise Set
Actual Time 7:18 AM PDT 6:39 PM PDT
Civil Twilight 6:51 AM PDT 7:06 PM PDT
Nautical Twilight 6:20 AM PDT 7:37 PM PDT
Astronomical Twilight 5:49 AM PDT 8:08 PM PDT
Moon 9:13 PM PDT (10/11) 10:46 AM PDT (10/11)
Length of Visible Light 12h 14m
Length of Day
11h 21m
Waning Gibbous, 86% of the Moon is Illuminated
Oct 11
Waning Gibbous
Oct 15
Last Quarter
Oct 23
New
Oct 30
First Quarter
Nov 6
Full

Hourly Weather History & Observations

Time (PDT) Temp. Dew Point Humidity Pressure Visibility Wind Dir Wind Speed Gust Speed Precip Events Conditions
12:56 AM 55.0 °F 46.9 °F 74% 30.02 in 10.0 mi Calm Calm - N/A   Clear
1:56 AM 53.1 °F 46.0 °F 77% 30.02 in 10.0 mi Calm Calm - N/A   Clear
2:56 AM 53.1 °F 45.0 °F 74% 30.01 in 10.0 mi Calm Calm - N/A   Clear
3:56 AM 54.0 °F 45.0 °F 72% 30.02 in 10.0 mi Calm Calm - N/A   Clear
4:56 AM 51.1 °F 45.0 °F 80% 30.02 in 10.0 mi Calm Calm - N/A   Clear
5:56 AM 50.0 °F 45.0 °F 83% 30.02 in 10.0 mi Calm Calm - N/A   Clear
6:56 AM 51.1 °F 44.1 °F 77% 30.05 in 10.0 mi Calm Calm - N/A   Clear
7:56 AM 50.0 °F 44.1 °F 80% 30.05 in 10.0 mi Calm Calm - N/A   Clear
8:56 AM 57.9 °F 45.0 °F 62% 30.06 in 10.0 mi Calm Calm - N/A   Clear
9:56 AM 66.9 °F 46.0 °F 47% 30.07 in 10.0 mi North 3.5 mph - N/A   Clear
10:56 AM 71.1 °F 46.0 °F 41% 30.05 in 10.0 mi Calm Calm - N/A   Clear
11:56 AM 78.1 °F 44.1 °F 30% 30.03 in 10.0 mi WSW 5.8 mph - N/A   Clear
12:56 PM 82.9 °F 45.0 °F 26% 30.01 in 10.0 mi Calm Calm - N/A   Clear
1:56 PM 87.1 °F 43.0 °F 21% 29.98 in 10.0 mi WNW 12.7 mph 19.6 mph N/A   Clear
2:56 PM 87.1 °F 46.0 °F 24% 29.96 in 10.0 mi WNW 10.4 mph - N/A   Clear
3:56 PM 86.0 °F 48.0 °F 27% 29.95 in 10.0 mi NW 9.2 mph - N/A   Clear
4:56 PM 84.0 °F 48.9 °F 29% 29.96 in 10.0 mi NW 10.4 mph - N/A   Clear
5:56 PM 81.0 °F 51.1 °F 35% 29.96 in 10.0 mi North 8.1 mph - N/A   Clear
6:56 PM 75.9 °F 53.1 °F 45% 29.99 in 10.0 mi North 8.1 mph - N/A   Clear
7:56 PM 72.0 °F 53.1 °F 51% 29.99 in 10.0 mi Calm Calm - N/A   Clear
8:56 PM 66.9 °F 52.0 °F 59% 30.01 in 10.0 mi South 3.5 mph - N/A   Clear
9:56 PM 66.0 °F 52.0 °F 60% 30.01 in 10.0 mi Calm Calm - N/A   Clear
10:56 PM 61.0 °F 53.1 °F 75% 30.02 in 10.0 mi Calm Calm - N/A   Clear
11:56 PM 62.1 °F 52.0 °F 70% 30.02 in 10.0 mi Calm Calm - N/A   Clear